| time (UTC) | temp F | wind direction | speed knots | gust knots | rain 1hr in | rain 24hr in | rain mn in | humidity % | barometer mb |
| 20260505201210 | 76 | 203 | 2.6 | 2.6 | 0.00 | 0.00 | 0.00 | 47 | 1001.1 |
| 20260505200708 | 77 | 239 | 0.0 | 0.9 | 0.00 | 0.00 | 0.00 | 47 | 1001.2 |
| 20260505200204 | 78 | 194 | 3.5 | 4.3 | 0.00 | 0.00 | 0.00 | 45 | 1001.1 |
| 20260505195700 | 77 | 222 | 2.6 | 2.6 | 0.00 | 0.00 | 0.00 | 46 | 1001.1 |
| 20260505195157 | 76 | 224 | 2.6 | 4.3 | 0.00 | 0.00 | 0.00 | 47 | 1001.4 |
| 20260505194655 | 77 | 192 | 2.6 | 2.6 | 0.00 | 0.00 | 0.00 | 46 | 1001.5 |
| 20260505194151 | 78 | 224 | 3.5 | 5.2 | 0.00 | 0.00 | 0.00 | 45 | 1001.5 |
| 20260505193647 | 78 | 223 | 2.6 | 2.6 | 0.00 | 0.00 | 0.00 | 45 | 1001.2 |
| 20260505193144 | 77 | 245 | 1.7 | 2.6 | 0.00 | 0.00 | 0.00 | 46 | 1001.4 |
| 20260505192643 | 77 | 137 | 2.6 | 2.6 | 0.00 | 0.00 | 0.00 | 47 | 1001.6 |
| 20260505192140 | 77 | 148 | 1.7 | 1.7 | 0.00 | 0.00 | 0.00 | 46 | 1001.7 |
| 20260505191639 | 78 | 227 | 2.6 | 4.3 | 0.00 | 0.00 | 0.00 | 45 | 1001.5 |
| 20260505191137 | 79 | 263 | 2.6 | 4.3 | 0.00 | 0.00 | 0.00 | 44 | 1001.4 |
| 20260505190632 | 80 | 192 | 2.6 | 4.3 | 0.00 | 0.00 | 0.00 | 41 | 1001.5 |
| 20260505190127 | 82 | 206 | 2.6 | 2.6 | 0.00 | 0.00 | 0.00 | 37 | 1001.7 |
| 20260505185624 | 82 | 266 | 3.5 | 5.2 | 0.00 | 0.00 | 0.00 | 37 | 1001.9 |
| 20260505185120 | 81 | 226 | 1.7 | 1.7 | 0.00 | 0.00 | 0.00 | 38 | 1002.0 |
| 20260505184617 | 80 | 252 | 1.7 | 1.7 | 0.00 | 0.00 | 0.00 | 38 | 1002.1 |
| 20260505184114 | 82 | 240 | 1.7 | 2.6 | 0.00 | 0.00 | 0.00 | 37 | 1002.2 |
| 20260505183610 | 81 | 215 | 3.5 | 5.2 | 0.00 | 0.00 | 0.00 | 38 | 1002.1 |
| 20260505183108 | 81 | 241 | 4.3 | 6.1 | 0.00 | 0.00 | 0.00 | 37 | 1002.2 |
| 20260505182604 | 81 | 253 | 1.7 | 1.7 | 0.00 | 0.00 | 0.00 | 38 | 1002.2 |
| 20260505182101 | 81 | 252 | 1.7 | 1.7 | 0.00 | 0.00 | 0.00 | 38 | 1002.3 |
| 20260505181558 | 80 | 158 | 1.7 | 2.6 | 0.00 | 0.00 | 0.00 | 38 | 1002.5 |
| 20260505181055 | 80 | 198 | 3.5 | 4.3 | 0.00 | 0.00 | 0.00 | 39 | 1002.4 |
| 20260505180550 | 80 | 225 | 2.6 | 4.3 | 0.00 | 0.00 | 0.00 | 39 | 1002.5 |
| 20260505180049 | 81 | 218 | 7.8 | 12.2 | 0.00 | 0.00 | 0.00 | 38 | 1002.6 |
| 20260505175549 | 81 | 230 | 3.5 | 4.3 | 0.00 | 0.00 | 0.00 | 38 | 1002.6 |
| 20260505175046 | 81 | 166 | 3.5 | 4.3 | 0.00 | 0.00 | 0.00 | 38 | 1002.7 |
| 20260505174543 | 81 | 239 | 3.5 | 4.3 | 0.00 | 0.00 | 0.00 | 38 | 1002.8 |
| 20260505174039 | 81 | 274 | 3.5 | 4.3 | 0.00 | 0.00 | 0.00 | 39 | 1002.9 |
| 20260505173536 | 80 | 182 | 3.5 | 5.2 | 0.00 | 0.00 | 0.00 | 39 | 1003.1 |
| 20260505173033 | 80 | 274 | 2.6 | 2.6 | 0.00 | 0.00 | 0.00 | 39 | 1003.1 |
| 20260505172526 | 81 | 245 | 0.9 | 1.7 | 0.00 | 0.00 | 0.00 | 40 | 1003.1 |
| 20260505172021 | 79 | 218 | 0.9 | 0.9 | 0.00 | 0.00 | 0.00 | 40 | 1003.2 |
| 20260505171517 | 79 | 212 | 2.6 | 5.2 | 0.00 | 0.00 | 0.00 | 40 | 1003.2 |
| 20260505171014 | 79 | 248 | 1.7 | 1.7 | 0.00 | 0.00 | 0.00 | 41 | 1003.2 |
| 20260505170510 | 78 | 202 | 2.6 | 2.6 | 0.00 | 0.00 | 0.00 | 42 | 1003.2 |
| 20260505170006 | 79 | 187 | 1.7 | 2.6 | 0.00 | 0.00 | 0.00 | 42 | 1003.4 |
| 20260505165501 | 78 | 258 | 2.6 | 5.2 | 0.00 | 0.00 | 0.00 | 43 | 1003.7 |
| 20260505164957 | 78 | 199 | 2.6 | 2.6 | 0.00 | 0.00 | 0.00 | 43 | 1003.8 |
| 20260505164453 | 79 | 245 | 0.9 | 0.9 | 0.00 | 0.00 | 0.00 | 42 | 1003.7 |
| 20260505163952 | 77 | 202 | 4.3 | 6.1 | 0.00 | 0.00 | 0.00 | 43 | 1003.6 |
| 20260505163450 | 77 | 247 | 1.7 | 1.7 | 0.00 | 0.00 | 0.00 | 43 | 1004.2 |
| 20260505162949 | 77 | 193 | 4.3 | 5.2 | 0.00 | 0.00 | 0.00 | 43 | 1004.3 |
| 20260505162445 | 76 | 269 | 2.6 | 4.3 | 0.00 | 0.00 | 0.00 | 44 | 1004.6 |
| 20260505161941 | 75 | 265 | 3.5 | 4.3 | 0.00 | 0.00 | 0.00 | 45 | 1004.6 |
| 20260505161438 | 76 | 238 | 4.3 | 6.1 | 0.00 | 0.00 | 0.00 | 45 | 1005.1 |
| 20260505160936 | 77 | 213 | 2.6 | 4.3 | 0.00 | 0.00 | 0.00 | 43 | 1004.8 |
| 20260505160434 | 76 | 264 | 1.7 | 1.7 | 0.00 | 0.00 | 0.00 | 44 | 1005.0 |
| 20260505152910 | 72 | 227 | 2.6 | 2.6 | 0.00 | 0.00 | 0.00 | 47 | 1005.4 |
| 20260505152407 | 72 | 264 | 2.6 | 2.6 | 0.00 | 0.00 | 0.00 | 47 | 1005.5 |
| 20260505151907 | 72 | 300 | 2.6 | 2.6 | 0.00 | 0.00 | 0.00 | 48 | 1005.8 |
| 20260505151404 | 71 | 221 | 0.9 | 1.7 | 0.00 | 0.00 | 0.00 | 50 | 1005.5 |
| 20260505150855 | 71 | 182 | 1.7 | 1.7 | 0.00 | 0.00 | 0.00 | 49 | 1005.6 |
| 20260505150353 | 70 | 200 | 2.6 | 2.6 | 0.00 | 0.00 | 0.00 | 50 | 1005.7 |
| 20260505140317 | 66 | 234 | 2.6 | 2.6 | 0.00 | 0.00 | 0.00 | 54 | 1005.4 |
| 20260505130240 | 61 | 223 | 0.9 | 1.7 | 0.00 | 0.00 | 0.00 | 61 | 1006.4 |
| 20260505124730 | 60 | 286 | 2.6 | 2.6 | 0.00 | 0.00 | 0.00 | 63 | 1006.5 |
| 20260505124227 | 60 | 208 | 0.9 | 1.7 | 0.00 | 0.00 | 0.00 | 62 | 1006.5 |
| 20260505123722 | 59 | 237 | 1.7 | 1.7 | 0.00 | 0.00 | 0.00 | 64 | 1006.2 |
| 20260505123220 | 58 | 233 | 0.9 | 0.9 | 0.00 | 0.00 | 0.00 | 65 | 1006.1 |
| 20260505122716 | 57 | 240 | 0.0 | 0.0 | 0.00 | 0.00 | 0.00 | 68 | 1005.9 |
| 20260505122214 | 57 | 236 | 0.9 | 0.9 | 0.00 | 0.00 | 0.00 | 68 | 1005.7 |
| 20260505121710 | 57 | 242 | 0.0 | 0.9 | 0.00 | 0.00 | 0.00 | 68 | 1005.9 |
| 20260505121207 | 57 | 213 | 1.7 | 1.7 | 0.00 | 0.00 | 0.00 | 68 | 1006.1 |
| 20260505120703 | 56 | 220 | 0.9 | 1.7 | 0.00 | 0.00 | 0.00 | 69 | 1006.0 |
| 20260505120159 | 56 | 213 | 0.0 | 0.9 | 0.00 | 0.00 | 0.00 | 70 | 1006.4 |
| 20260505115658 | 55 | 212 | 0.9 | 0.9 | 0.00 | 0.00 | 0.00 | 71 | 1006.2 |
| 20260505115156 | 55 | 250 | 0.0 | 0.0 | 0.00 | 0.00 | 0.00 | 72 | 1006.0 |
| 20260505114654 | 54 | 251 | 0.0 | 0.0 | 0.00 | 0.00 | 0.00 | 75 | 1006.3 |
| 20260505114149 | 53 | 244 | 0.0 | 0.0 | 0.00 | 0.00 | 0.00 | 77 | 1006.2 |
| 20260505113646 | 53 | 251 | 0.0 | 0.0 | 0.00 | 0.00 | 0.00 | 77 | 1006.4 |
| 20260505113143 | 51 | 251 | 0.0 | 0.0 | 0.00 | 0.00 | 0.00 | 81 | 1006.3 |
| 20260505112639 | 50 | 245 | 0.0 | 0.0 | 0.00 | 0.00 | 0.00 | 83 | 1006.3 |
| 20260505112138 | 48 | 244 | 0.0 | 0.0 | 0.00 | 0.00 | 0.00 | 87 | 1006.4 |
| 20260505111637 | 48 | 242 | 0.0 | 0.0 | 0.00 | 0.00 | 0.00 | 88 | 1006.3 |
| 20260505111133 | 46 | 225 | 0.0 | 0.0 | 0.00 | 0.00 | 0.00 | 92 | 1006.4 |
| 20260505110629 | 45 | 242 | 0.0 | 0.0 | 0.00 | 0.00 | 0.00 | 94 | 1006.6 |
| 20260505110127 | 44 | 250 | 0.0 | 0.0 | 0.00 | 0.00 | 0.00 | 94 | 1006.7 |
| 20260505102102 | 43 | 246 | 0.0 | 0.0 | 0.00 | 0.00 | 0.00 | 95 | 1006.4 |
| 20260505101601 | 43 | 246 | 0.0 | 0.0 | 0.00 | 0.00 | 0.00 | 95 | 1006.4 |
| 20260505101056 | 43 | 246 | 0.0 | 0.0 | 0.00 | 0.00 | 0.00 | 95 | 1006.4 |
| 20260505100553 | 43 | 246 | 0.0 | 0.0 | 0.00 | 0.00 | 0.00 | 94 | 1006.5 |
| 20260505100050 | 43 | 246 | 0.0 | 0.0 | 0.00 | 0.00 | 0.00 | 94 | 1006.3 |
| 20260505095546 | 43 | 246 | 0.0 | 0.0 | 0.00 | 0.00 | 0.00 | 94 | 1006.4 |
| 20260505095043 | 43 | 245 | 0.0 | 0.0 | 0.00 | 0.00 | 0.00 | 94 | 1006.4 |
| 20260505094539 | 43 | 246 | 0.0 | 0.0 | 0.00 | 0.00 | 0.00 | 94 | 1006.7 |
| 20260505094036 | 43 | 246 | 0.0 | 0.0 | 0.00 | 0.00 | 0.00 | 94 | 1006.5 |
| 20260505093532 | 43 | 246 | 0.0 | 0.0 | 0.00 | 0.00 | 0.00 | 94 | 1006.4 |
| 20260505093030 | 43 | 248 | 0.0 | 0.0 | 0.00 | 0.00 | 0.00 | 94 | 1006.2 |
| 20260505092527 | 43 | 248 | 0.0 | 0.0 | 0.00 | 0.00 | 0.00 | 94 | 1006.3 |
| 20260505092025 | 43 | 248 | 0.0 | 0.0 | 0.00 | 0.00 | 0.00 | 93 | 1006.4 |
| 20260505091522 | 43 | 248 | 0.0 | 0.0 | 0.00 | 0.00 | 0.00 | 93 | 1006.3 |
| 20260505091020 | 44 | 248 | 0.0 | 0.0 | 0.00 | 0.00 | 0.00 | 93 | 1006.3 |
| 20260505090518 | 44 | 248 | 0.0 | 0.0 | 0.00 | 0.00 | 0.00 | 93 | 1006.4 |
| 20260505090015 | 44 | 247 | 0.0 | 0.0 | 0.00 | 0.00 | 0.00 | 92 | 1006.6 |
| 20260505085513 | 44 | 245 | 0.0 | 0.0 | 0.00 | 0.00 | 0.00 | 92 | 1006.4 |
| 20260505085011 | 44 | 244 | 0.0 | 0.0 | 0.00 | 0.00 | 0.00 | 92 | 1006.6 |
| 20260505084509 | 44 | 244 | 0.0 | 0.0 | 0.00 | 0.00 | 0.00 | 92 | 1006.6 |
| 20260505084007 | 44 | 244 | 0.0 | 0.0 | 0.00 | 0.00 | 0.00 | 91 | 1006.6 |
| 20260505083504 | 44 | 224 | 0.0 | 0.0 | 0.00 | 0.00 | 0.00 | 92 | 1006.5 |
| 20260505083000 | 44 | 251 | 0.0 | 0.0 | 0.00 | 0.00 | 0.00 | 91 | 1006.6 |
| 20260505082455 | 45 | 251 | 0.0 | 0.0 | 0.00 | 0.00 | 0.00 | 91 | 1006.7 |
| 20260505081953 | 45 | 251 | 0.0 | 0.0 | 0.00 | 0.00 | 0.00 | 90 | 1006.8 |
| 20260505081449 | 45 | 251 | 0.0 | 0.0 | 0.00 | 0.00 | 0.00 | 89 | 1006.7 |
| 20260505080946 | 45 | 251 | 0.0 | 0.0 | 0.00 | 0.00 | 0.00 | 89 | 1006.9 |
| 20260505080442 | 45 | 252 | 0.0 | 0.0 | 0.00 | 0.00 | 0.00 | 90 | 1007.0 |
| 20260505075938 | 45 | 244 | 0.0 | 0.0 | 0.00 | 0.00 | 0.00 | 90 | 1007.0 |
| 20260505075435 | 45 | 244 | 0.0 | 0.0 | 0.00 | 0.00 | 0.00 | 90 | 1006.8 |
| 20260505074932 | 45 | 244 | 0.0 | 0.0 | 0.00 | 0.00 | 0.00 | 90 | 1006.7 |
| 20260505074430 | 45 | 243 | 0.0 | 0.0 | 0.00 | 0.00 | 0.00 | 90 | 1006.6 |
| 20260505073926 | 45 | 243 | 0.0 | 0.0 | 0.00 | 0.00 | 0.00 | 90 | 1006.7 |
| 20260505073424 | 45 | 243 | 0.0 | 0.0 | 0.00 | 0.00 | 0.00 | 89 | 1006.8 |
| 20260505072921 | 45 | 243 | 0.0 | 0.0 | 0.00 | 0.00 | 0.00 | 89 | 1006.7 |
| 20260505072417 | 46 | 243 | 0.0 | 0.0 | 0.00 | 0.00 | 0.00 | 89 | 1006.4 |
| 20260505071914 | 46 | 243 | 0.0 | 0.0 | 0.00 | 0.00 | 0.00 | 88 | 1006.8 |
| 20260505071410 | 46 | 245 | 0.0 | 0.0 | 0.00 | 0.00 | 0.00 | 88 | 1006.8 |
| 20260505070908 | 47 | 245 | 0.0 | 0.0 | 0.00 | 0.00 | 0.00 | 87 | 1006.8 |
| 20260505070404 | 48 | 245 | 0.0 | 0.0 | 0.00 | 0.00 | 0.00 | 85 | 1006.7 |
| 20260505065900 | 48 | 245 | 0.0 | 0.0 | 0.00 | 0.00 | 0.00 | 84 | 1006.8 |
| 20260505065356 | 48 | 245 | 0.0 | 0.0 | 0.00 | 0.00 | 0.00 | 84 | 1006.8 |
| 20260505064853 | 48 | 244 | 0.0 | 0.0 | 0.00 | 0.00 | 0.00 | 82 | 1006.6 |
| 20260505064350 | 49 | 244 | 0.0 | 0.0 | 0.00 | 0.00 | 0.00 | 81 | 1006.8 |
| 20260505063849 | 50 | 243 | 0.0 | 0.0 | 0.00 | 0.00 | 0.00 | 78 | 1006.7 |
| 20260505063344 | 49 | 235 | 0.0 | 0.0 | 0.00 | 0.00 | 0.00 | 78 | 1006.5 |
| 20260505062841 | 50 | 243 | 0.0 | 0.0 | 0.00 | 0.00 | 0.00 | 77 | 1006.6 |
| 20260505062339 | 49 | 244 | 0.0 | 0.0 | 0.00 | 0.00 | 0.00 | 77 | 1006.7 |
| 20260505061835 | 49 | 243 | 0.0 | 0.0 | 0.00 | 0.00 | 0.00 | 78 | 1006.8 |
| 20260505061333 | 49 | 243 | 0.0 | 0.0 | 0.00 | 0.00 | 0.00 | 78 | 1006.8 |
| 20260505060831 | 48 | 236 | 0.0 | 0.0 | 0.00 | 0.00 | 0.00 | 81 | 1006.7 |
| 20260505060327 | 48 | 244 | 0.0 | 0.0 | 0.00 | 0.00 | 0.00 | 82 | 1006.6 |
| 20260505055823 | 48 | 245 | 0.0 | 0.0 | 0.00 | 0.00 | 0.00 | 84 | 1006.7 |
| 20260505055319 | 47 | 247 | 0.0 | 0.0 | 0.00 | 0.00 | 0.00 | 84 | 1006.9 |
| 20260505054817 | 48 | 245 | 0.0 | 0.0 | 0.00 | 0.00 | 0.00 | 84 | 1006.6 |
| 20260505054314 | 49 | 245 | 0.0 | 0.0 | 0.00 | 0.00 | 0.00 | 82 | 1006.8 |
| 20260505053812 | 49 | 244 | 0.0 | 0.0 | 0.00 | 0.00 | 0.00 | 80 | 1006.6 |
| 20260505053309 | 50 | 245 | 0.0 | 0.0 | 0.00 | 0.00 | 0.00 | 78 | 1006.8 |
| 20260505052806 | 51 | 244 | 0.0 | 0.0 | 0.00 | 0.00 | 0.00 | 75 | 1006.6 |
| 20260505052304 | 51 | 244 | 0.0 | 0.0 | 0.00 | 0.00 | 0.00 | 73 | 1006.6 |
| 20260505051800 | 52 | 244 | 0.0 | 0.0 | 0.00 | 0.00 | 0.00 | 71 | 1006.6 |
| 20260505051257 | 53 | 238 | 0.0 | 0.0 | 0.00 | 0.00 | 0.00 | 69 | 1006.6 |
| 20260505050755 | 52 | 245 | 0.0 | 0.0 | 0.00 | 0.00 | 0.00 | 70 | 1006.7 |
| 20260505050254 | 52 | 245 | 0.0 | 0.0 | 0.00 | 0.00 | 0.00 | 70 | 1006.5 |
| 20260505041723 | 53 | 229 | 0.0 | 0.0 | 0.00 | 0.00 | 0.00 | 66 | 1006.5 |
| 20260505041220 | 53 | 229 | 0.0 | 0.0 | 0.00 | 0.00 | 0.00 | 67 | 1006.3 |
| 20260505040718 | 53 | 234 | 0.0 | 0.0 | 0.00 | 0.00 | 0.00 | 68 | 1006.1 |
| 20260505040215 | 52 | 244 | 0.0 | 0.0 | 0.00 | 0.00 | 0.00 | 71 | 1006.1 |
| 20260505035712 | 52 | 244 | 0.0 | 0.0 | 0.00 | 0.00 | 0.00 | 72 | 1005.8 |
| 20260505035208 | 51 | 242 | 0.0 | 0.0 | 0.00 | 0.00 | 0.00 | 75 | 1006.2 |
| 20260505034704 | 51 | 252 | 0.9 | 0.9 | 0.00 | 0.00 | 0.00 | 77 | 1005.9 |
| 20260505034202 | 50 | 251 | 0.0 | 0.9 | 0.00 | 0.00 | 0.00 | 79 | 1005.9 |
| 20260505033657 | 49 | 244 | 0.0 | 0.0 | 0.00 | 0.00 | 0.00 | 85 | 1005.7 |
| 20260505033156 | 49 | 240 | 0.0 | 0.0 | 0.00 | 0.00 | 0.00 | 85 | 1005.6 |
| 20260505032654 | 49 | 240 | 0.0 | 0.0 | 0.00 | 0.00 | 0.00 | 85 | 1005.7 |
| 20260505032149 | 49 | 240 | 0.0 | 0.0 | 0.00 | 0.00 | 0.00 | 85 | 1005.5 |
| 20260505031647 | 49 | 240 | 0.0 | 0.0 | 0.00 | 0.00 | 0.00 | 85 | 1005.5 |
| 20260505031143 | 50 | 240 | 0.0 | 0.0 | 0.00 | 0.00 | 0.00 | 84 | 1005.5 |
| 20260505030640 | 50 | 239 | 0.0 | 0.0 | 0.00 | 0.00 | 0.00 | 84 | 1005.5 |
| 20260505030136 | 50 | 240 | 0.0 | 0.0 | 0.00 | 0.00 | 0.00 | 84 | 1005.5 |
| 20260505025632 | 50 | 241 | 0.0 | 0.0 | 0.00 | 0.00 | 0.00 | 83 | 1005.6 |
| 20260505025131 | 50 | 241 | 0.0 | 0.0 | 0.00 | 0.00 | 0.00 | 84 | 1005.6 |
| 20260505024628 | 50 | 241 | 0.0 | 0.0 | 0.00 | 0.00 | 0.00 | 83 | 1005.4 |
| 20260505024125 | 51 | 241 | 0.0 | 0.0 | 0.00 | 0.00 | 0.00 | 82 | 1005.4 |
| 20260505023622 | 51 | 240 | 0.0 | 0.0 | 0.00 | 0.00 | 0.00 | 81 | 1005.7 |
| 20260505023120 | 52 | 240 | 0.0 | 0.0 | 0.00 | 0.00 | 0.00 | 80 | 1005.5 |
| 20260505022617 | 52 | 239 | 0.0 | 0.0 | 0.00 | 0.00 | 0.00 | 80 | 1005.6 |
| 20260505022114 | 52 | 254 | 0.0 | 0.0 | 0.00 | 0.00 | 0.00 | 79 | 1005.7 |
| 20260505021610 | 51 | 243 | 0.0 | 0.0 | 0.00 | 0.00 | 0.00 | 81 | 1005.8 |
| 20260505021107 | 52 | 244 | 0.0 | 0.0 | 0.00 | 0.00 | 0.00 | 80 | 1006.0 |
| 20260505020603 | 52 | 244 | 0.0 | 0.0 | 0.00 | 0.00 | 0.00 | 77 | 1005.4 |
| 20260505020059 | 52 | 244 | 0.0 | 0.0 | 0.00 | 0.00 | 0.00 | 78 | 1005.5 |
| 20260505015556 | 52 | 244 | 0.0 | 0.0 | 0.00 | 0.00 | 0.00 | 78 | 1005.5 |
| 20260505015053 | 52 | 244 | 0.0 | 0.0 | 0.00 | 0.00 | 0.00 | 78 | 1005.5 |
| 20260505014550 | 53 | 244 | 0.0 | 0.0 | 0.00 | 0.00 | 0.00 | 77 | 1005.6 |
| 20260505014047 | 53 | 244 | 0.0 | 0.0 | 0.00 | 0.00 | 0.00 | 77 | 1005.2 |
| 20260505013544 | 53 | 244 | 0.0 | 0.0 | 0.00 | 0.00 | 0.00 | 75 | 1005.5 |
| 20260505013041 | 53 | 244 | 0.0 | 0.0 | 0.00 | 0.00 | 0.00 | 74 | 1005.2 |
| 20260505012539 | 54 | 244 | 0.0 | 0.0 | 0.00 | 0.00 | 0.00 | 74 | 1005.3 |
| 20260505012036 | 54 | 244 | 0.0 | 0.0 | 0.00 | 0.00 | 0.00 | 74 | 1005.2 |
| 20260505011536 | 54 | 244 | 0.0 | 0.0 | 0.00 | 0.00 | 0.00 | 74 | 1005.0 |
| 20260505011034 | 54 | 244 | 0.0 | 0.0 | 0.00 | 0.00 | 0.00 | 75 | 1005.3 |
| 20260505010529 | 54 | 245 | 0.0 | 0.0 | 0.00 | 0.00 | 0.00 | 74 | 1005.1 |
| 20260505010026 | 54 | 245 | 0.0 | 0.0 | 0.00 | 0.00 | 0.00 | 69 | 1004.8 |
| 20260505005522 | 55 | 245 | 0.0 | 0.0 | 0.00 | 0.00 | 0.00 | 72 | 1005.0 |
| 20260505005020 | 55 | 245 | 0.0 | 0.0 | 0.00 | 0.00 | 0.00 | 70 | 1004.9 |
| 20260505004517 | 55 | 245 | 0.0 | 0.0 | 0.00 | 0.00 | 0.00 | 70 | 1004.6 |
| 20260505004014 | 56 | 245 | 0.0 | 0.0 | 0.00 | 0.00 | 0.00 | 67 | 1004.6 |
| 20260505003511 | 56 | 245 | 0.0 | 0.0 | 0.00 | 0.00 | 0.00 | 67 | 1004.5 |
| 20260505003008 | 57 | 247 | 0.0 | 0.0 | 0.00 | 0.00 | 0.00 | 67 | 1004.5 |
| 20260505002503 | 57 | 247 | 0.0 | 0.0 | 0.00 | 0.00 | 0.00 | 64 | 1004.2 |
| 20260505002002 | 57 | 248 | 0.0 | 0.0 | 0.00 | 0.00 | 0.00 | 64 | 1004.3 |
| 20260505001459 | 57 | 247 | 0.0 | 0.0 | 0.00 | 0.00 | 0.00 | 62 | 1004.6 |
| 20260505000956 | 58 | 245 | 0.0 | 0.0 | 0.00 | 0.00 | 0.00 | 62 | 1004.0 |
| 20260505000454 | 58 | 245 | 0.0 | 0.0 | 0.00 | 0.00 | 0.00 | 60 | 1004.3 |
| 20260504235950 | 59 | 245 | 0.0 | 0.0 | 0.00 | 0.00 | 0.00 | 58 | 1004.1 |
| 20260504235448 | 60 | 245 | 0.0 | 0.0 | 0.00 | 0.00 | 0.00 | 56 | 1004.1 |
| 20260504234944 | 60 | 246 | 0.0 | 0.0 | 0.00 | 0.00 | 0.00 | 56 | 1003.9 |
| 20260504234441 | 61 | 245 | 0.0 | 0.0 | 0.00 | 0.00 | 0.00 | 54 | 1003.8 |
| 20260504233938 | 62 | 244 | 0.0 | 0.0 | 0.00 | 0.00 | 0.00 | 50 | 1003.9 |
| 20260504233434 | 63 | 245 | 0.0 | 0.0 | 0.00 | 0.00 | 0.00 | 51 | 1003.8 |
| 20260504232931 | 64 | 245 | 0.0 | 0.0 | 0.00 | 0.00 | 0.00 | 47 | 1003.7 |
| 20260504232428 | 66 | 245 | 0.0 | 0.0 | 0.00 | 0.00 | 0.00 | 43 | 1003.6 |
| 20260504231925 | 66 | 245 | 0.0 | 0.0 | 0.00 | 0.00 | 0.00 | 41 | 1003.8 |
| 20260504231421 | 65 | 245 | 0.0 | 0.0 | 0.00 | 0.00 | 0.00 | 44 | 1003.6 |
| 20260504230917 | 66 | 255 | 0.0 | 0.0 | 0.00 | 0.00 | 0.00 | 43 | 1003.6 |
| 20260504230415 | 67 | 236 | 0.0 | 0.0 | 0.00 | 0.00 | 0.00 | 43 | 1003.5 |
| 20260504225913 | 67 | 250 | 0.0 | 0.0 | 0.00 | 0.00 | 0.00 | 40 | 1003.4 |
| 20260504225410 | 67 | 263 | 0.9 | 0.9 | 0.00 | 0.00 | 0.00 | 39 | 1003.4 |
| 20260504224907 | 68 | 245 | 0.0 | 0.0 | 0.00 | 0.00 | 0.00 | 43 | 1003.1 |
| 20260504224403 | 69 | 236 | 0.0 | 0.0 | 0.00 | 0.00 | 0.00 | 38 | 1003.1 |
| 20260504223901 | 68 | 248 | 0.0 | 0.0 | 0.00 | 0.00 | 0.00 | 39 | 1003.1 |
| 20260504223356 | 68 | 246 | 1.7 | 1.7 | 0.00 | 0.00 | 0.00 | 38 | 1003.0 |
| 20260504222852 | 68 | 251 | 0.0 | 0.9 | 0.00 | 0.00 | 0.00 | 38 | 1003.2 |
| 20260504222349 | 68 | 264 | 1.7 | 1.7 | 0.00 | 0.00 | 0.00 | 38 | 1003.3 |
| 20260504221848 | 68 | 227 | 0.9 | 0.9 | 0.00 | 0.00 | 0.00 | 38 | 1003.4 |
| 20260504221344 | 68 | 231 | 0.9 | 0.9 | 0.00 | 0.00 | 0.00 | 38 | 1003.2 |
| 20260504220842 | 68 | 236 | 0.9 | 0.9 | 0.00 | 0.00 | 0.00 | 38 | 1003.1 |
| 20260504220338 | 69 | 254 | 0.9 | 1.7 | 0.00 | 0.00 | 0.00 | 37 | 1003.2 |
| 20260504215835 | 69 | 240 | 0.9 | 0.9 | 0.00 | 0.00 | 0.00 | 38 | 1003.2 |
| 20260504215331 | 69 | 228 | 1.7 | 1.7 | 0.00 | 0.00 | 0.00 | 38 | 1003.1 |
| 20260504214828 | 69 | 269 | 0.9 | 1.7 | 0.00 | 0.00 | 0.00 | 37 | 1003.3 |
| 20260504214325 | 69 | 269 | 2.6 | 5.2 | 0.00 | 0.00 | 0.00 | 36 | 1003.1 |
| 20260504213821 | 70 | 196 | 1.7 | 1.7 | 0.00 | 0.00 | 0.00 | 36 | 1003.3 |
| 20260504213317 | 70 | 269 | 2.6 | 2.6 | 0.00 | 0.00 | 0.00 | 36 | 1003.2 |
| 20260504212815 | 70 | 253 | 2.6 | 2.6 | 0.00 | 0.00 | 0.00 | 37 | 1003.1 |
| 20260504212311 | 69 | 223 | 3.5 | 4.3 | 0.00 | 0.00 | 0.00 | 38 | 1003.2 |
| 20260504211809 | 69 | 253 | 0.0 | 0.0 | 0.00 | 0.00 | 0.00 | 39 | 1003.3 |
| 20260504211304 | 70 | 292 | 0.9 | 0.9 | 0.00 | 0.00 | 0.00 | 38 | 1003.1 |
| 20260504210802 | 69 | 251 | 2.6 | 4.3 | 0.00 | 0.00 | 0.00 | 37 | 1003.1 |
| 20260504210259 | 68 | 279 | 0.0 | 0.9 | 0.00 | 0.00 | 0.00 | 42 | 1003.2 |
| 20260504205756 | 68 | 256 | 0.0 | 0.9 | 0.00 | 0.00 | 0.00 | 41 | 1003.0 |
| 20260504205254 | 67 | 246 | 0.9 | 0.9 | 0.00 | 0.00 | 0.00 | 41 | 1003.0 |
| 20260504204752 | 67 | 258 | 1.7 | 1.7 | 0.00 | 0.00 | 0.00 | 43 | 1003.0 |
| 20260504204250 | 68 | 304 | 2.6 | 2.6 | 0.00 | 0.00 | 0.00 | 40 | 1003.0 |
| 20260504203749 | 68 | 280 | 0.9 | 1.7 | 0.00 | 0.00 | 0.00 | 39 | 1003.1 |
| 20260504203246 | 68 | 251 | 0.9 | 1.7 | 0.00 | 0.00 | 0.00 | 40 | 1003.0 |
| 20260504202741 | 68 | 232 | 2.6 | 2.6 | 0.00 | 0.00 | 0.00 | 40 | 1003.2 |
| 20260504202239 | 69 | 245 | 1.7 | 1.7 | 0.00 | 0.00 | 0.00 | 40 | 1002.9 |
| 20260504201736 | 68 | 229 | 2.6 | 2.6 | 0.00 | 0.00 | 0.00 | 40 | 1003.1 |